Probability
16 16 13 13 13 6 0 0 0 0 0 0 0 0 0 0 0 0 0 0 0 0 0 0 0 0 0 0 0 0 0 0 0 0 0 0 0 0 0 0 0 0 0
10 10 10 10 10 6 0 0 0 0 0 0 0 0 0 0 0 0 0 0 0 0 0 0 0 0 0 0 0 0 0 0 0 0 0 0 0 0 0 0 0 0 0
10 10 6 6 3 3 3 3 3 3 0 0 0 3 3 3 0 0 0 0 0 0 0 0 0 0 0 0 0 0 0 0 0 0 0 0 0 0 0 0 0 0 0
10 3 3 3 0 0 3 6 3 3 3 3 3 3 3 6 3 0 0 0 0 0 0 0 0 0 0 0 0 0 0 0 0 0 0 0 0 0 0 0 0 0 0
6 10 6 3 3 3 6 3 0 0 0 0 0 3 3 0 0 3 0 0 0 0 0 0 0 0 0 0 0 0 0 0 0 0 0 0 0 0 0 0 0 0 0
3 6 3 3 3 3 3 3 3 3 0 0 0 0 0 0 0 0 0 0 0 0 3 3 0 0 0 0 0 0 0 0 0 0 0 0 0 0 0 0 0 0 0
3 10 10 3 3 3 3 3 0 0 3 0 0 0 0 0 0 0 0 0 0 0 0 0 3 3 0 0 0 0 0 0 0 0 0 0 0 0 0 0 0 0 0
13 10 6 3 3 3 3 3 3 0 3 3 3 3 3 0 0 0 0 0 0 0 0 0 0 3 3 0 0 0 0 0 0 0 0 0 0 0 0 0 0 0 0
6 6 3 3 3 3 3 3 3 0 0 0 0 0 0 0 0 0 0 0 0 0 0 0 0 0 0 0 0 0 0 0 0 0 0 0 0 0 0 0 0 0 0
6 3 3 3 3 3 3 3 0 0 0 0 0 0 0 0 0 0 0 0 0 0 0 0 0 0 0 0 0 0 0 0 0 0 0 0 0 0 0 0 0 0 0
3 3 3 3 3 3 3 3 0 0 0 0 0 0 0 0 0 0 0 0 0 0 0 0 0 0 0 0 0 0 0 0 0 0 0 0 0 0 0 0 0 0 0
3 0 0 3 3 3 3 0 0 0 0 0 0 0 0 0 0 0 0 0 0 0 0 0 0 0 0 0 0 0 0 0 0 0 0 0 0 0 0 0 0 0 0
0 0 0 0 3 3 3 3 0 0 0 0 0 0 0 0 0 0 0 0 0 0 0 0 0 0 0 0 0 0 0 0 0 0 0 0 0 0 0 0 0 0 0
0 0 0 0 0 3 3 3 0 0 0 0 0 0 0 0 0 0 0 0 0 0 0 0 0 0 0 0 0 0 0 0 0 0 0 0 0 0 0 0 0 0 0
0 0 0 0 0 0 3 3 3 0 0 0 0 0 0 0 0 0 0 0 0 0 0 0 0 0 0 0 0 0 0 0 0 0 0 0 0 0 0 0 0 0 0
0 0 0 0 0 0 0 0 0 0 0 0 0 0 0 0 0 0 0 0 0 0 0 0 0 0 0 0 0 0 0 0 0 0 0 0 0 0 0 0 0 0 0
0 0 0 0 0 0 0 0 0 0 0 0 0 0 0 0 0 0 0 0 0 0 0 0 0 0 0 0 0 0 0 0 0 0 0 0 0 0 0 0 0 0 0
0 0 0 0 0 0 0 0 0 0 0 0 0 0 0 0 0 0 0 0 0 0 0 0 0 0 0 0 0 0 0 0 0 0 0 0 0 0 0 0 0 0 0
0 0 0 0 0 0 0 0 0 0 0 0 0 0 0 0 0 0 0 0 0 0 0 0 0 0 0 0 0 0 0 0 0 0 0 0 0 0 0 0 0 0 0
0 0 0 0 0 0 0 0 0 0 0 0 0 0 0 0 0 0 0 0 0 0 0 0 0 0 0 0 0 0 0 0 0 0 0 0 0 0 0 0 0 0 0
0 0 0 0 0 0 0 0 0 0 0 0 0 0 0 0 0 0 0 0 0 0 0 0 0 0 0 0 0 0 0 0 0 0 0 0 0 0 0 0 0 0 0
0 0 0 0 0 0 0 0 0 0 0 0 0 0 0 0 0 0 0 0 0 0 0 0 0 0 0 0 0 0 0 0 0 0 0 0 0 0 0 0 0 0 0
0 0 0 0 0 0 0 0 0 0 0 0 0 0 0 0 0 0 0 0 0 0 0 0 0 0 0 0 0 0 0 0 0 0 0 0 0 0 0 0 0 0 0
0 0 0 0 0 0 0 0 0 0 0 0 0 0 0 0 0 0 0 0 0 0 0 0 0 0 0 0 0 0 0 0 0 0 0 0 0 0 0 0 0 0 0
0 0 0 0 0 0 0 0 0 0 0 0 0 0 0 0 0 0 0 0 0 0 0 0 0 0 0 0 0 0 0 0 0 0 0 0 0 0 0 0 0 0 0
0 0 0 0 0 0 0 0 0 0 0 0 0 0 0 0 0 0 0 0 0 0 0 0 0 0 0 0 0 0 0 0 0 0 0 0 0 0 0 0 0 0 0
Height
5863 5863 5863 5864 5863 5863 5862 5862 5862 5862 5862 5862 5862 5863 5863 5863 5864 5864 5864 5865 5865 5865 5865 5865 5865 5865 5865 5865 5864 5864 5864 5863 5863 5862 5861 5860 5859 5858 5857 5856 5854 5853 5852
5861 5861 5861 5861 5861 5860 5860 5859 5859 5859 5859 5859 5859 5859 5859 5859 5859 5860 5860 5860 5860 5860 5860 5860 5860 5859 5859 5859 5859 5858 5858 5857 5857 5856 5855 5854 5853 5852 5850 5849 5847 5846 5844
5860 5859 5859 5858 5858 5858 5857 5856 5856 5856 5856 5856 5855 5855 5855 5855 5855 5855 5855 5855 5855 5855 5855 5854 5854 5853 5853 5853 5853 5852 5852 5851 5850 5849 5848 5847 5846 5845 5843 5842 5840 5838 5836
5858 5857 5857 5856 5855 5855 5854 5853 5852 5852 5852 5852 5852 5852 5852 5851 5851 5851 5850 5850 5850 5850 5850 5849 5848 5848 5847 5847 5847 5846 5846 5845 5844 5843 5841 5840 5839 5837 5836 5834 5832 5829 5827
5856 5855 5854 5853 5852 5851 5850 5849 5849 5849 5849 5848 5848 5848 5847 5847 5847 5846 5846 5845 5845 5844 5844 5843 5843 5842 5842 5841 5841 5840 5839 5838 5837 5835 5834 5833 5831 5830 5828 5825 5823 5821 5818
5853 5852 5851 5850 5849 5848 5847 5846 5845 5845 5845 5844 5844 5844 5843 5842 5842 5841 5841 5840 5840 5839 5838 5838 5837 5836 5835 5835 5834 5833 5832 5831 5829 5828 5827 5825 5823 5821 5819 5816 5814 5812 5808
5850 5849 5848 5847 5845 5844 5843 5842 5841 5841 5840 5840 5840 5840 5839 5838 5837 5837 5836 5835 5834 5834 5833 5832 5831 5830 5829 5828 5827 5826 5824 5823 5822 5821 5819 5817 5815 5812 5810 5807 5805 5802 5798
5847 5846 5845 5843 5842 5841 5839 5838 5838 5837 5837 5836 5836 5835 5834 5834 5833 5832 5831 5830 5829 5828 5827 5826 5824 5823 5822 5821 5820 5818 5817 5816 5814 5813 5811 5809 5806 5804 5801 5798 5795 5792 5789
5843 5842 5841 5839 5838 5837 5835 5834 5834 5833 5833 5832 5831 5830 5830 5829 5828 5827 5826 5825 5824 5822 5821 5820 5818 5816 5815 5814 5813 5812 5810 5809 5807 5805 5803 5801 5798 5795 5792 5790 5786 5783 5780
5838 5837 5836 5835 5834 5832 5831 5830 5829 5829 5828 5827 5826 5825 5824 5823 5822 5821 5820 5819 5818 5816 5815 5813 5812 5810 5809 5807 5806 5804 5803 5801 5799 5797 5794 5792 5789 5786 5783 5781 5777 5774 5770
5834 5832 5831 5830 5829 5828 5826 5825 5824 5824 5823 5822 5821 5820 5819 5818 5817 5815 5814 5813 5812 5810 5809 5807 5805 5803 5801 5800 5799 5797 5795 5794 5791 5789 5786 5784 5781 5778 5775 5772 5768 5765 5761
5829 5827 5826 5825 5823 5822 5821 5820 5819 5818 5817 5816 5815 5814 5813 5812 5811 5810 5808 5807 5806 5804 5802 5800 5799 5797 5795 5793 5791 5790 5788 5786 5784 5781 5778 5776 5773 5769 5766 5762 5759 5755 5751
5823 5821 5820 5819 5817 5816 5815 5814 5813 5812 5811 5810 5809 5808 5807 5806 5805 5803 5802 5800 5799 5797 5795 5794 5792 5790 5788 5786 5784 5782 5780 5778 5776 5773 5770 5767 5764 5760 5757 5753 5749 5745 5741
5816 5815 5814 5812 5811 5810 5809 5808 5807 5806 5805 5804 5803 5801 5800 5799 5798 5796 5795 5793 5792 5790 5789 5786 5785 5783 5781 5779 5777 5775 5773 5770 5768 5765 5762 5758 5755 5751 5748 5744 5740 5736 5731
5810 5808 5807 5806 5804 5803 5802 5801 5800 5799 5798 5797 5796 5795 5793 5792 5791 5790 5788 5786 5785 5783 5782 5780 5778 5776 5774 5772 5770 5767 5765 5762 5759 5756 5753 5749 5746 5742 5738 5735 5731 5726 5722
5803 5801 5800 5799 5798 5796 5795 5794 5793 5792 5791 5790 5789 5788 5786 5785 5784 5783 5781 5780 5778 5777 5775 5773 5771 5769 5767 5765 5762 5759 5757 5754 5751 5747 5744 5741 5737 5733 5730 5726 5722 5718 5714
5795 5794 5793 5791 5790 5789 5788 5787 5786 5785 5784 5782 5781 5780 5779 5778 5777 5776 5774 5773 5771 5770 5768 5766 5764 5762 5759 5757 5754 5751 5749 5745 5742 5739 5736 5732 5728 5725 5721 5717 5714 5710 5706
5787 5786 5785 5783 5782 5781 5780 5780 5778 5777 5776 5775 5774 5773 5772 5771 5770 5768 5767 5766 5764 5763 5761 5759 5756 5754 5752 5749 5746 5743 5740 5737 5734 5731 5727 5724 5720 5717 5713 5710 5706 5702 5698
5779 5778 5776 5775 5774 5774 5773 5772 5771 5770 5769 5768 5767 5766 5765 5763 5762 5761 5759 5758 5757 5755 5753 5751 5749 5747 5744 5741 5738 5735 5732 5729 5726 5723 5720 5716 5713 5709 5706 5702 5699 5695 5691
5770 5769 5769 5768 5767 5766 5765 5764 5763 5762 5762 5761 5760 5759 5758 5756 5755 5754 5753 5751 5749 5748 5746 5744 5741 5739 5736 5733 5730 5727 5724 5721 5718 5715 5712 5708 5705 5702 5698 5695 5691 5688 5684
5762 5761 5761 5760 5759 5758 5757 5757 5756 5755 5754 5754 5753 5752 5751 5749 5748 5747 5745 5743 5742 5740 5738 5735 5733 5730 5728 5725 5722 5719 5716 5713 5710 5707 5704 5701 5698 5694 5691 5688 5684 5681 5677
5754 5754 5753 5752 5751 5751 5750 5749 5749 5748 5747 5746 5745 5744 5743 5742 5741 5739 5738 5736 5734 5732 5730 5727 5725 5723 5720 5717 5714 5711 5709 5706 5703 5699 5696 5693 5690 5687 5684 5681 5677 5674 5671
5746 5746 5745 5745 5744 5743 5743 5742 5742 5741 5740 5739 5738 5737 5736 5735 5733 5732 5730 5728 5726 5724 5722 5719 5717 5715 5712 5709 5706 5703 5701 5698 5695 5692 5689 5686 5683 5680 5677 5674 5671 5667 5664
5739 5739 5738 5738 5737 5737 5736 5736 5735 5734 5733 5732 5731 5730 5729 5727 5726 5724 5722 5720 5718 5716 5713 5711 5709 5706 5704 5701 5698 5695 5692 5690 5687 5684 5681 5678 5675 5673 5670 5667 5664 5661 5658
5732 5732 5732 5731 5731 5730 5730 5729 5728 5727 5726 5725 5724 5722 5721 5719 5718 5716 5714 5712 5710 5707 5705 5703 5700 5698 5695 5692 5689 5687 5684 5682 5679 5676 5673 5671 5668 5665 5663 5660 5657 5654 5651
5726 5725 5725 5725 5724 5724 5723 5722 5721 5720 5719 5717 5716 5714 5713 5711 5709 5707 5705 5703 5701 5699 5696 5694 5691 5689 5686 5684 5681 5679 5676 5674 5671 5668 5666 5663 5661 5658 5655 5653 5650 5647 5644
Wind_Speed
8 8 8 9 10 10 11 12 12 13 13 14 15 16 16 17 18 18 19 19 19 20 20 21 21 22 22 22 22 22 23 23 24 24 25 25 25 26 28 29 29 29 30
8 8 9 10 10 11 12 13 13 13 14 15 15 15 16 17 18 19 19 19 20 20 20 21 22 22 23 23 23 24 25 25 25 26 26 26 27 28 29 30 30 31 32
9 9 10 11 11 12 12 12 13 14 14 14 14 15 16 16 17 18 19 20 19 20 20 21 22 23 23 23 24 24 25 26 26 27 27 28 28 29 29 30 31 32 33
9 9 10 10 11 12 13 13 13 14 14 14 14 15 16 16 17 18 19 20 19 19 20 21 22 23 23 24 25 25 26 26 27 27 27 28 28 29 30 32 33 35 36
10 10 10 11 11 12 13 13 13 14 14 15 16 16 17 17 18 19 19 19 20 21 22 22 23 24 24 25 25 26 27 27 27 27 27 28 29 31 33 34 35 37 38
11 11 11 12 12 13 13 14 14 15 15 16 16 16 17 17 18 19 20 21 21 22 22 23 23 24 25 25 26 27 27 28 27 28 30 31 32 32 33 35 36 37 38
13 13 13 13 14 14 13 14 14 14 14 15 16 16 17 17 18 19 21 22 22 23 23 24 24 24 25 26 26 28 28 28 29 30 31 32 33 34 34 35 36 37 38
14 14 14 14 15 14 14 14 14 14 15 16 16 17 18 18 19 20 20 21 21 23 23 24 24 25 25 26 27 28 28 28 29 30 31 33 33 34 34 35 36 37 38
15 15 15 15 15 16 16 15 15 16 17 17 17 18 19 20 20 21 21 21 22 23 23 24 25 25 25 26 26 27 28 29 30 31 32 33 33 33 33 34 35 36 37
17 17 17 17 17 17 17 17 17 17 18 18 19 19 19 20 20 21 22 22 23 23 24 25 26 26 27 26 27 28 28 29 30 31 32 32 32 32 33 34 35 36 38
17 18 18 18 19 18 18 18 19 19 19 19 19 20 20 21 22 22 22 23 24 25 25 25 26 26 27 27 28 28 28 29 30 31 32 32 32 33 34 35 36 37 38
19 19 20 20 20 19 20 20 20 20 20 20 20 21 21 22 22 22 23 24 25 26 26 26 26 27 27 27 28 29 29 30 30 31 32 32 33 34 34 35 36 37 38
20 21 21 21 21 22 22 21 22 22 22 22 22 22 23 23 23 24 24 24 25 26 27 27 27 27 27 27 28 28 29 29 30 31 32 33 33 34 35 36 36 37 37
21 22 22 22 23 23 23 23 23 23 23 24 24 24 24 23 24 24 25 25 25 26 26 26 26 26 27 28 28 28 29 30 31 32 33 33 34 35 35 36 36 36 36
23 23 24 24 24 23 24 24 24 24 24 24 24 24 24 25 25 25 26 25 25 25 25 26 27 27 27 28 29 29 30 31 32 32 33 34 35 35 35 35 35 36 35
25 25 25 25 24 25 25 24 24 24 24 24 24 25 26 26 26 26 26 26 26 27 26 26 27 27 28 29 30 31 32 32 32 33 33 34 34 34 34 35 34 34 33
27 27 26 26 25 25 25 24 24 24 25 26 25 25 26 26 26 26 26 27 27 27 27 27 28 29 29 30 30 31 32 32 32 32 33 33 33 33 32 32 32 32 31
28 28 27 27 26 25 25 25 25 25 25 25 25 25 25 26 26 27 26 26 26 27 27 28 28 29 29 30 30 30 31 32 32 32 32 32 31 31 31 31 31 30 30
28 28 27 26 26 25 25 25 25 25 25 25 25 25 25 25 26 26 26 25 26 27 27 28 29 29 29 30 30 31 31 31 31 31 31 30 30 30 30 30 30 29 29
27 27 26 26 25 25 24 25 24 24 24 24 25 25 25 25 26 26 26 26 27 28 29 29 29 30 30 30 30 30 30 30 31 30 30 30 30 30 29 29 28 28 28
26 26 26 25 25 25 25 24 24 24 24 24 25 25 25 25 25 26 26 27 28 28 29 29 29 29 29 30 30 30 30 30 30 30 29 29 29 29 29 28 28 28 28
26 25 25 25 24 24 24 23 23 23 24 24 24 24 24 25 25 26 27 27 27 28 28 28 28 29 29 30 30 30 30 30 30 29 29 29 29 28 28 28 28 27 27
24 24 24 24 23 23 23 22 22 22 23 23 23 24 24 25 25 25 26 27 27 27 28 29 29 30 30 31 31 31 30 30 30 29 29 29 28 27 27 27 26 26 26
23 23 22 22 22 22 23 22 23 23 23 24 24 25 25 25 26 26 27 27 28 28 29 30 30 31 31 31 30 30 29 29 29 29 28 28 27 27 26 26 26 25 25
22 22 22 22 22 22 22 22 23 23 24 25 25 26 26 26 27 27 28 28 29 29 30 30 30 30 30 30 29 29 29 29 29 28 27 27 27 26 26 25 25 25 25
21 22 22 22 22 22 23 23 24 25 25 25 25 26 26 27 28 29 29 29 29 30 30 30 30 30 30 29 29 29 29 29 28 27 27 27 26 26 25 25 24 25 25
Wind_Direction
287 279 277 278 280 276 276 271 267 262 261 261 260 258 259 259 259 262 263 263 264 264 265 265 265 267 268 270 270 271 272 274 274 273 272 272 275 278 279 280 281 280 281
299 284 280 281 280 278 278 275 272 269 264 264 267 264 263 261 261 265 266 265 266 266 268 268 266 266 266 267 269 271 273 275 275 273 273 274 276 278 280 281 282 282 282
308 297 290 287 283 283 282 281 277 271 269 271 270 268 267 266 264 265 265 267 269 270 272 272 271 270 269 268 270 272 275 276 276 275 275 276 279 280 281 282 282 283 284
305 300 296 292 287 284 282 280 278 272 268 269 272 273 273 269 267 269 268 268 270 275 276 276 274 273 271 270 272 274 276 277 277 277 279 279 282 284 283 284 284 285 286
302 300 296 292 289 288 285 280 278 273 271 271 272 274 276 273 269 271 273 272 275 277 278 278 277 275 274 274 275 275 275 275 276 277 280 283 284 285 284 285 285 286 286
297 297 294 292 290 290 290 284 280 276 274 273 273 276 276 275 273 272 274 276 279 280 280 281 280 278 277 276 277 276 277 277 278 280 283 284 286 287 287 287 288 288 288
297 295 294 293 291 290 289 288 286 281 279 277 278 278 278 277 276 276 279 280 281 282 281 282 281 280 278 277 278 281 281 281 281 283 285 286 287 288 287 288 289 289 290
294 294 294 295 294 290 288 286 286 285 282 280 280 281 281 280 280 281 282 283 284 284 282 282 283 283 282 281 279 279 279 280 283 285 288 289 289 289 288 288 289 290 291
294 294 294 294 294 291 287 285 285 285 282 280 281 282 282 282 282 282 282 284 283 283 283 283 284 284 283 284 284 283 284 283 285 287 289 290 292 291 290 291 292 292 293
294 293 292 290 290 290 289 286 285 285 286 283 283 282 283 283 283 282 282 283 283 284 284 286 288 286 285 285 285 285 285 286 288 290 291 293 294 293 292 293 295 295 296
293 292 291 291 289 287 287 286 285 285 288 286 285 284 283 282 282 283 283 283 284 286 286 288 290 287 286 287 287 287 288 290 291 292 293 294 295 295 295 296 296 297 298
292 292 291 290 290 288 286 285 284 284 284 284 285 284 283 282 282 283 284 283 284 285 286 288 289 289 289 289 288 289 290 290 292 293 294 295 296 297 298 299 300 300 301
290 291 290 289 288 288 286 283 283 283 282 283 284 284 283 282 282 284 284 284 284 285 287 288 289 290 290 288 288 290 291 292 294 296 296 297 298 299 301 302 302 303 303
289 289 289 287 286 286 285 283 281 281 281 282 284 284 282 282 284 285 284 284 285 287 289 289 289 290 289 290 291 292 294 295 296 297 297 298 300 301 302 303 304 304 304
289 288 288 287 285 285 284 283 281 280 280 281 282 283 282 281 283 286 287 286 287 288 290 291 292 293 293 293 293 293 295 297 298 299 299 301 301 302 303 304 304 304 306
287 287 287 286 286 285 284 281 279 279 279 280 281 281 281 281 282 285 286 285 287 290 291 292 292 293 293 294 295 295 297 298 299 300 301 301 301 303 304 305 305 306 307
285 285 285 284 285 284 282 281 279 278 278 279 281 282 283 282 281 282 284 285 286 289 291 292 292 294 295 296 296 297 298 299 300 301 301 302 303 304 306 307 308 308 308
284 284 284 283 283 282 280 278 278 277 277 278 280 281 282 281 281 282 284 285 286 289 291 293 294 296 297 297 298 299 299 299 300 302 304 304 305 306 307 308 307 307 308
283 282 281 280 279 278 277 278 278 277 276 276 278 280 281 280 281 282 285 286 288 290 292 294 295 295 296 298 299 300 300 301 302 304 304 305 305 306 306 307 307 308 309
280 280 279 278 277 276 276 277 277 276 276 276 278 281 282 281 281 283 285 287 289 290 292 293 294 294 296 298 299 301 301 302 302 303 303 304 305 305 306 307 308 309 311
277 276 276 275 275 275 276 276 275 275 276 277 279 281 282 282 283 284 285 287 290 290 290 292 294 296 297 298 299 300 300 300 301 302 304 305 306 306 307 308 309 310 311
273 273 274 274 275 275 275 275 275 276 277 279 281 282 282 282 284 286 287 289 290 292 292 293 295 297 298 299 299 300 300 300 302 303 305 305 305 306 307 308 309 310 311
272 272 274 274 274 274 274 275 277 277 280 280 281 282 282 283 285 287 289 290 292 293 293 295 296 297 298 298 299 299 299 299 301 302 303 303 304 305 306 307 308 309 311
270 271 274 274 275 274 274 275 276 277 280 281 280 280 282 284 286 289 291 292 293 293 294 295 296 297 297 297 298 298 298 298 299 300 301 302 303 304 305 305 307 308 309
269 271 272 273 275 275 276 277 279 279 279 281 282 283 284 286 288 290 292 293 293 294 294 295 296 296 296 296 296 296 297 298 300 300 301 302 302 303 303 304 305 306 308
270 272 273 274 275 276 277 278 280 282 283 284 285 286 287 288 290 291 291 292 293 294 294 295 295 296 296 295 295 296 297 298 299 299 299 300 301 302 302 302 304 306 307